Time,TemperatureF,DewpointF,PressureIn,WindDirection,WindDirectionDegrees,WindSpeedMPH,WindSpeedGustMPH,Humidity,HourlyPrecipIn,Conditions,Clouds,dailyrainin,SoftwareType,DateUTC
2013-02-24 00:01:00,34.0,32.0,29.85,North,10,7.0,-999.0,93,-99.99,,,-99.99,,2013-02-24 05:01:00,
2013-02-24 00:11:00,34.0,32.0,29.85,North,350,3.0,-999.0,93,-99.99,,,-99.99,,2013-02-24 05:11:00,
2013-02-24 00:22:00,34.0,32.0,29.84,NNW,340,3.0,-999.0,93,-99.99,,,-99.99,,2013-02-24 05:22:00,
2013-02-24 00:32:00,34.0,32.0,29.83,North,10,6.0,-999.0,93,-99.99,,,-99.99,,2013-02-24 05:32:00,
2013-02-24 00:42:00,34.0,32.0,29.83,North,0,6.0,-999.0,93,-99.99,,,-99.99,,2013-02-24 05:42:00,
2013-02-24 00:52:00,34.0,32.0,29.83,NNE,20,7.0,-999.0,93,-99.99,,,-99.99,,2013-02-24 05:52:00,
2013-02-24 01:02:00,34.0,32.0,29.83,NNE,20,7.0,-999.0,93,-99.99,,,-99.99,,2013-02-24 06:02:00,
2013-02-24 01:11:00,34.0,32.0,29.82,North,0,6.0,-999.0,93,-99.99,,,-99.99,,2013-02-24 06:11:00,
2013-02-24 01:21:00,34.0,32.0,29.82,North,0,3.0,-999.0,93,-99.99,,,-99.99,,2013-02-24 06:21:00,
2013-02-24 01:32:00,34.0,32.0,29.81,North,10,6.0,-999.0,93,-99.99,,,-99.99,,2013-02-24 06:32:00,
2013-02-24 01:42:00,34.0,32.0,29.81,North,350,2.0,-999.0,93,-99.99,,,-99.99,,2013-02-24 06:42:00,
2013-02-24 01:52:00,34.0,32.0,29.81,North,10,12.0,-999.0,93,-99.99,,,-99.99,,2013-02-24 06:52:00,
2013-02-24 02:01:00,34.0,32.0,29.81,North,10,12.0,-999.0,93,-99.99,,,-99.99,,2013-02-24 07:01:00,
2013-02-24 02:12:00,34.0,32.0,29.80,North,0,0.0,-999.0,93,-99.99,,,-99.99,,2013-02-24 07:12:00,
2013-02-24 02:21:00,34.0,32.0,29.78,North,10,8.0,-999.0,93,-99.99,,,-99.99,,2013-02-24 07:21:00,
2013-02-24 02:32:00,34.0,32.0,29.77,North,360,6.0,-999.0,93,-99.99,,,-99.99,,2013-02-24 07:32:00,
2013-02-24 02:42:00,34.0,32.0,29.77,North,350,6.0,-999.0,93,-99.99,,,-99.99,,2013-02-24 07:42:00,
2013-02-24 02:51:00,34.0,32.0,29.76,North,350,7.0,-999.0,93,-99.99,,,-99.99,,2013-02-24 07:51:00,
2013-02-24 03:01:00,34.0,32.0,29.76,North,350,7.0,-999.0,93,-99.99,,,-99.99,,2013-02-24 08:01:00,
2013-02-24 03:11:00,36.0,32.0,29.75,NNE,20,10.0,-999.0,86,-99.99,,,-99.99,,2013-02-24 08:11:00,
2013-02-24 03:22:00,36.0,34.0,29.74,North,350,5.0,-999.0,93,-99.99,,,-99.99,,2013-02-24 08:22:00,
2013-02-24 03:32:00,36.0,34.0,29.74,NNW,340,6.0,-999.0,93,-99.99,,,-99.99,,2013-02-24 08:32:00,
2013-02-24 03:42:00,36.0,34.0,29.74,NNE,20,6.0,-999.0,93,-99.99,,,-99.99,,2013-02-24 08:42:00,
2013-02-24 03:53:00,36.0,34.0,29.75,North,350,3.0,-999.0,93,-99.99,,,-99.99,,2013-02-24 08:53:00,
2013-02-24 04:01:00,36.0,34.0,29.75,North,350,3.0,-999.0,93,-99.99,,,-99.99,,2013-02-24 09:01:00,
2013-02-24 04:11:00,36.0,34.0,29.74,North,360,7.0,-999.0,93,-99.99,,,-99.99,,2013-02-24 09:11:00,
2013-02-24 04:21:00,36.0,34.0,29.73,North,10,7.0,-999.0,93,-99.99,,,-99.99,,2013-02-24 09:21:00,
2013-02-24 04:31:00,36.0,32.0,29.73,North,350,5.0,-999.0,86,-99.99,,,-99.99,,2013-02-24 09:31:00,
2013-02-24 04:42:00,34.0,32.0,29.73,North,0,0.0,-999.0,93,-99.99,,,-99.99,,2013-02-24 09:42:00,
2013-02-24 04:51:00,34.0,32.0,29.72,North,0,7.0,-999.0,93,-99.99,,,-99.99,,2013-02-24 09:51:00,
2013-02-24 05:01:00,34.0,32.0,29.72,North,0,7.0,-999.0,93,-99.99,,,-99.99,,2013-02-24 10:01:00,
2013-02-24 05:11:00,34.0,32.0,29.73,NNW,340,1.0,-999.0,93,-99.99,,,-99.99,,2013-02-24 10:11:00,
2013-02-24 05:21:00,34.0,32.0,29.74,North,10,5.0,-999.0,93,-99.99,,,-99.99,,2013-02-24 10:21:00,
2013-02-24 05:32:00,34.0,32.0,29.74,North,350,7.0,-999.0,93,-99.99,,,-99.99,,2013-02-24 10:32:00,
2013-02-24 05:41:00,34.0,32.0,29.75,NNW,330,1.0,-999.0,93,-99.99,,,-99.99,,2013-02-24 10:41:00,
2013-02-24 05:51:00,34.0,32.0,29.75,NNE,30,8.0,-999.0,93,-99.99,,,-99.99,,2013-02-24 10:51:00,
2013-02-24 06:01:00,34.0,32.0,29.75,NNE,30,8.0,-999.0,93,-99.99,,,-99.99,,2013-02-24 11:01:00,
2013-02-24 06:11:00,36.0,34.0,29.74,NNE,30,3.0,-999.0,93,-99.99,,,-99.99,,2013-02-24 11:11:00,
2013-02-24 06:21:00,34.0,32.0,29.74,North,0,10.0,-999.0,93,-99.99,,,-99.99,,2013-02-24 11:21:00,
2013-02-24 06:32:00,34.0,32.0,29.73,NNW,340,5.0,-999.0,93,-99.99,,,-99.99,,2013-02-24 11:32:00,
2013-02-24 06:41:00,34.0,32.0,29.74,North,350,7.0,-999.0,93,-99.99,,,-99.99,,2013-02-24 11:41:00,
2013-02-24 06:52:00,36.0,32.0,29.74,North,350,10.0,-999.0,86,-99.99,,,-99.99,,2013-02-24 11:52:00,
2013-02-24 07:02:00,36.0,32.0,29.74,North,350,10.0,-999.0,86,-99.99,,,-99.99,,2013-02-24 12:02:00,
2013-02-24 07:11:00,36.0,34.0,29.72,NNE,20,14.0,-999.0,93,-99.99,,,-99.99,,2013-02-24 12:11:00,
2013-02-24 07:22:00,36.0,34.0,29.73,NNE,20,6.0,-999.0,93,-99.99,,,-99.99,,2013-02-24 12:22:00,
2013-02-24 07:32:00,36.0,34.0,29.71,North,350,7.0,-999.0,93,-99.99,,,-99.99,,2013-02-24 12:32:00,
2013-02-24 07:46:00,36.0,34.0,29.71,NNE,20,6.0,-999.0,93,-99.99,,,-99.99,,2013-02-24 12:46:00,
2013-02-24 07:55:00,36.0,34.0,29.71,NNE,30,7.0,17.0,93,-99.99,,,-99.99,,2013-02-24 12:55:00,
2013-02-24 08:14:00,36.0,34.0,29.71,NNE,30,7.0,17.0,93,-99.99,,,-99.99,,2013-02-24 13:14:00,
2013-02-24 08:34:00,36.0,34.0,29.70,NNW,340,8.0,-999.0,93,-99.99,,,-99.99,,2013-02-24 13:34:00,
2013-02-24 08:44:00,36.0,34.0,29.70,NNE,30,8.0,-999.0,93,-99.99,,,-99.99,,2013-02-24 13:44:00,
2013-02-24 08:53:00,36.0,34.0,29.70,North,10,9.0,16.0,93,-99.99,,,-99.99,,2013-02-24 13:53:00,
2013-02-24 09:05:00,36.0,34.0,29.70,North,10,9.0,16.0,93,-99.99,,,-99.99,,2013-02-24 14:05:00,
2013-02-24 09:14:00,36.0,34.0,29.71,NNW,330,3.0,-999.0,93,-99.99,,,-99.99,,2013-02-24 14:14:00,
2013-02-24 09:25:00,36.0,34.0,29.70,North,0,2.0,-999.0,93,-99.99,,,-99.99,,2013-02-24 14:25:00,
2013-02-24 09:34:00,36.0,34.0,29.69,North,360,7.0,-999.0,93,-99.99,,,-99.99,,2013-02-24 14:34:00,
2013-02-24 09:44:00,36.0,34.0,29.69,NNE,30,9.0,-999.0,93,-99.99,,,-99.99,,2013-02-24 14:44:00,
2013-02-24 09:53:00,36.0,34.0,29.69,North,360,8.0,-999.0,93,-99.99,,,-99.99,,2013-02-24 14:53:00,
2013-02-24 10:03:00,36.0,34.0,29.69,North,360,8.0,-999.0,93,-99.99,,,-99.99,,2013-02-24 15:03:00,
2013-02-24 10:13:00,36.0,34.0,29.69,NNW,330,9.0,-999.0,93,-99.99,,,-99.99,,2013-02-24 15:13:00,
2013-02-24 10:23:00,36.0,34.0,29.68,NNW,340,2.0,-999.0,93,-99.99,,,-99.99,,2013-02-24 15:23:00,
2013-02-24 10:32:00,36.0,34.0,29.69,NE,40,8.0,-999.0,93,-99.99,,,-99.99,,2013-02-24 15:32:00,
2013-02-24 10:42:00,36.0,34.0,29.69,North,10,7.0,-999.0,93,-99.99,,,-99.99,,2013-02-24 15:42:00,
2013-02-24 10:52:00,36.0,34.0,29.70,North,360,7.0,-999.0,93,-99.99,,,-99.99,,2013-02-24 15:52:00,
2013-02-24 11:01:00,36.0,34.0,29.70,North,360,7.0,-999.0,93,-99.99,,,-99.99,,2013-02-24 16:01:00,
2013-02-24 11:11:00,36.0,34.0,29.69,NW,320,6.0,-999.0,93,-99.99,,,-99.99,,2013-02-24 16:11:00,
2013-02-24 11:21:00,36.0,32.0,29.70,NNW,340,3.0,-999.0,86,-99.99,,,-99.99,,2013-02-24 16:21:00,
2013-02-24 11:32:00,36.0,32.0,29.70,North,350,6.0,-999.0,86,-99.99,,,-99.99,,2013-02-24 16:32:00,
2013-02-24 11:42:00,36.0,32.0,29.69,North,360,3.0,-999.0,86,-99.99,,,-99.99,,2013-02-24 16:42:00,
2013-02-24 11:52:00,36.0,32.0,29.68,NNW,330,6.0,-999.0,86,-99.99,,,-99.99,,2013-02-24 16:52:00,
2013-02-24 12:01:00,36.0,32.0,29.68,NNW,330,6.0,-999.0,86,-99.99,,,-99.99,,2013-02-24 17:01:00,
2013-02-24 12:11:00,36.0,32.0,29.68,NNE,20,9.0,-999.0,86,-99.99,,,-99.99,,2013-02-24 17:11:00,
2013-02-24 12:21:00,36.0,32.0,29.68,North,0,9.0,17.0,86,-99.99,,,-99.99,,2013-02-24 17:21:00,
2013-02-24 12:32:00,36.0,32.0,29.68,NNE,20,8.0,-999.0,86,-99.99,,,-99.99,,2013-02-24 17:32:00,
2013-02-24 12:42:00,36.0,32.0,29.68,NNE,20,9.0,-999.0,86,-99.99,,,-99.99,,2013-02-24 17:42:00,
2013-02-24 12:52:00,36.0,34.0,29.68,North,350,3.0,-999.0,93,-99.99,,,-99.99,,2013-02-24 17:52:00,
2013-02-24 13:02:00,36.0,34.0,29.68,North,350,3.0,-999.0,93,-99.99,,,-99.99,,2013-02-24 18:02:00,
2013-02-24 13:11:00,36.0,32.0,29.68,North,350,8.0,-999.0,86,-99.99,,,-99.99,,2013-02-24 18:11:00,
2013-02-24 13:22:00,36.0,32.0,29.67,North,350,5.0,-999.0,86,-99.99,,,-99.99,,2013-02-24 18:22:00,
2013-02-24 13:32:00,36.0,32.0,29.67,North,0,6.0,-999.0,86,-99.99,,,-99.99,,2013-02-24 18:32:00,
2013-02-24 13:42:00,36.0,32.0,29.67,NNE,20,5.0,-999.0,86,-99.99,,,-99.99,,2013-02-24 18:42:00,
2013-02-24 13:52:00,36.0,32.0,29.68,NW,320,10.0,-999.0,86,-99.99,,,-99.99,,2013-02-24 18:52:00,
2013-02-24 14:01:00,36.0,32.0,29.68,NW,320,10.0,-999.0,86,-99.99,,,-99.99,,2013-02-24 19:01:00,
2013-02-24 14:11:00,36.0,32.0,29.67,North,350,5.0,-999.0,86,-99.99,,,-99.99,,2013-02-24 19:11:00,
2013-02-24 14:22:00,36.0,32.0,29.68,North,10,8.0,-999.0,86,-99.99,,,-99.99,,2013-02-24 19:22:00,
2013-02-24 14:32:00,36.0,32.0,29.68,NW,310,5.0,-999.0,86,-99.99,,,-99.99,,2013-02-24 19:32:00,
2013-02-24 14:42:00,36.0,32.0,29.68,North,360,7.0,-999.0,86,-99.99,,,-99.99,,2013-02-24 19:42:00,
2013-02-24 14:52:00,36.0,32.0,29.69,North,10,6.0,-999.0,86,-99.99,,,-99.99,,2013-02-24 19:52:00,
2013-02-24 15:02:00,36.0,32.0,29.69,North,10,6.0,-999.0,86,-99.99,,,-99.99,,2013-02-24 20:02:00,
2013-02-24 15:11:00,36.0,32.0,29.69,North,0,10.0,-999.0,86,-99.99,,,-99.99,,2013-02-24 20:11:00,
2013-02-24 15:21:00,36.0,32.0,29.70,North,10,5.0,-999.0,86,-99.99,,,-99.99,,2013-02-24 20:21:00,
2013-02-24 15:32:00,36.0,32.0,29.70,North,10,2.0,-999.0,86,-99.99,,,-99.99,,2013-02-24 20:32:00,
2013-02-24 15:42:00,36.0,32.0,29.70,North,350,6.0,-999.0,86,-99.99,,,-99.99,,2013-02-24 20:42:00,
2013-02-24 15:52:00,36.0,32.0,29.70,North,350,5.0,-999.0,86,-99.99,,,-99.99,,2013-02-24 20:52:00,
2013-02-24 16:02:00,36.0,32.0,29.70,North,350,5.0,-999.0,86,-99.99,,,-99.99,,2013-02-24 21:02:00,
2013-02-24 16:11:00,36.0,32.0,29.71,NW,320,3.0,-999.0,86,-99.99,,,-99.99,,2013-02-24 21:11:00,
2013-02-24 16:21:00,36.0,32.0,29.72,NNW,330,6.0,-999.0,86,-99.99,,,-99.99,,2013-02-24 21:21:00,
2013-02-24 16:32:00,36.0,32.0,29.72,NW,320,6.0,-999.0,86,-99.99,,,-99.99,,2013-02-24 21:32:00,
2013-02-24 16:42:00,34.0,32.0,29.72,North,0,0.0,-999.0,93,-99.99,,,-99.99,,2013-02-24 21:42:00,
2013-02-24 16:52:00,34.0,32.0,29.73,NNE,20,6.0,-999.0,93,-99.99,,,-99.99,,2013-02-24 21:52:00,
2013-02-24 17:01:00,34.0,32.0,29.73,NNE,20,6.0,-999.0,93,-99.99,,,-99.99,,2013-02-24 22:01:00,
2013-02-24 17:11:00,34.0,32.0,29.73,North,0,0.0,-999.0,93,-99.99,,,-99.99,,2013-02-24 22:11:00,
2013-02-24 17:21:00,34.0,32.0,29.73,North,10,6.0,-999.0,93,-99.99,,,-99.99,,2013-02-24 22:21:00,
2013-02-24 17:32:00,34.0,32.0,29.73,NNW,340,3.0,-999.0,93,-99.99,,,-99.99,,2013-02-24 22:32:00,
2013-02-24 17:41:00,34.0,32.0,29.74,North,0,0.0,-999.0,93,-99.99,,,-99.99,,2013-02-24 22:41:00,
2013-02-24 17:52:00,34.0,32.0,29.75,NNW,330,3.0,-999.0,93,-99.99,,,-99.99,,2013-02-24 22:52:00,
2013-02-24 18:02:00,34.0,32.0,29.75,NNW,330,3.0,-999.0,93,-99.99,,,-99.99,,2013-02-24 23:02:00,
2013-02-24 18:11:00,34.0,32.0,29.75,North,360,7.0,-999.0,93,-99.99,,,-99.99,,2013-02-24 23:11:00,
2013-02-24 18:21:00,34.0,32.0,29.76,North,0,0.0,-999.0,93,-99.99,,,-99.99,,2013-02-24 23:21:00,
2013-02-24 18:32:00,34.0,32.0,29.77,North,10,8.0,-999.0,93,-99.99,,,-99.99,,2013-02-24 23:32:00,
2013-02-24 18:42:00,34.0,32.0,29.78,North,350,3.0,-999.0,93,-99.99,,,-99.99,,2013-02-24 23:42:00,
2013-02-24 18:52:00,34.0,32.0,29.79,NW,320,3.0,-999.0,93,-99.99,,,-99.99,,2013-02-24 23:52:00,
2013-02-24 19:01:00,34.0,32.0,29.79,NW,320,3.0,-999.0,93,-99.99,,,-99.99,,2013-02-25 00:01:00,
2013-02-24 19:11:00,32.0,32.0,29.79,NW,320,2.0,-999.0,100,-99.99,,,-99.99,,2013-02-25 00:11:00,
2013-02-24 19:21:00,32.0,32.0,29.80,North,10,5.0,-999.0,100,-99.99,,,-99.99,,2013-02-25 00:21:00,
2013-02-24 19:32:00,32.0,32.0,29.80,NNE,20,6.0,-999.0,100,-99.99,,,-99.99,,2013-02-25 00:32:00,
2013-02-24 19:42:00,32.0,32.0,29.80,North,350,2.0,-999.0,100,-99.99,,,-99.99,,2013-02-25 00:42:00,
2013-02-24 19:52:00,32.0,32.0,29.81,NNW,340,5.0,-999.0,100,-99.99,,,-99.99,,2013-02-25 00:52:00,
2013-02-24 20:01:00,32.0,32.0,29.81,NNW,340,5.0,-999.0,100,-99.99,,,-99.99,,2013-02-25 01:01:00,
2013-02-24 20:11:00,32.0,32.0,29.81,North,0,0.0,-999.0,100,-99.99,,,-99.99,,2013-02-25 01:11:00,
2013-02-24 20:21:00,32.0,32.0,29.82,North,0,0.0,-999.0,100,-99.99,,,-99.99,,2013-02-25 01:21:00,
2013-02-24 20:32:00,32.0,32.0,29.82,North,0,0.0,-999.0,100,-99.99,,,-99.99,,2013-02-25 01:32:00,
2013-02-24 20:42:00,32.0,32.0,29.82,North,0,0.0,-999.0,100,-99.99,,,-99.99,,2013-02-25 01:42:00,
2013-02-24 20:52:00,32.0,32.0,29.83,North,0,0.0,-999.0,100,-99.99,,,-99.99,,2013-02-25 01:52:00,
2013-02-24 21:01:00,32.0,32.0,29.83,North,0,0.0,-999.0,100,-99.99,,,-99.99,,2013-02-25 02:01:00,
2013-02-24 21:11:00,32.0,32.0,29.84,North,0,0.0,-999.0,100,-99.99,,,-99.99,,2013-02-25 02:11:00,
2013-02-24 21:21:00,32.0,32.0,29.84,North,0,0.0,-999.0,100,-99.99,,,-99.99,,2013-02-25 02:21:00,
2013-02-24 21:32:00,32.0,32.0,29.85,North,0,0.0,-999.0,100,-99.99,,,-99.99,,2013-02-25 02:32:00,
2013-02-24 21:41:00,32.0,32.0,29.85,North,0,0.0,-999.0,100,-99.99,,,-99.99,,2013-02-25 02:41:00,
2013-02-24 21:52:00,32.0,32.0,29.85,North,0,0.0,-999.0,100,-99.99,,,-99.99,,2013-02-25 02:52:00,
2013-02-24 22:01:00,32.0,32.0,29.85,North,0,0.0,-999.0,100,-99.99,,,-99.99,,2013-02-25 03:01:00,
2013-02-24 22:11:00,32.0,32.0,29.86,North,0,0.0,-999.0,100,-99.99,,,-99.99,,2013-02-25 03:11:00,
2013-02-24 22:21:00,32.0,32.0,29.85,North,0,0.0,-999.0,100,-99.99,,,-99.99,,2013-02-25 03:21:00,
2013-02-24 22:31:00,32.0,32.0,29.85,North,0,0.0,-999.0,100,-99.99,,,-99.99,,2013-02-25 03:31:00,
2013-02-24 22:42:00,32.0,32.0,29.85,North,0,0.0,-999.0,100,-99.99,,,-99.99,,2013-02-25 03:42:00,
2013-02-24 22:51:00,32.0,32.0,29.86,North,0,0.0,-999.0,100,-99.99,,,-99.99,,2013-02-25 03:51:00,
2013-02-24 23:02:00,32.0,32.0,29.86,North,0,0.0,-999.0,100,-99.99,,,-99.99,,2013-02-25 04:02:00,
2013-02-24 23:11:00,32.0,32.0,29.86,North,0,0.0,-999.0,100,-99.99,,,-99.99,,2013-02-25 04:11:00,
2013-02-24 23:21:00,32.0,32.0,29.86,North,0,0.0,-999.0,100,-99.99,,,-99.99,,2013-02-25 04:21:00,
2013-02-24 23:32:00,32.0,32.0,29.86,North,0,0.0,-999.0,100,-99.99,,,-99.99,,2013-02-25 04:32:00,
2013-02-24 23:42:00,32.0,32.0,29.86,North,0,0.0,-999.0,100,-99.99,,,-99.99,,2013-02-25 04:42:00,
2013-02-24 23:52:00,32.0,32.0,29.87,North,0,0.0,-999.0,100,-99.99,,,-99.99,,2013-02-25 04:52:00,